[[{"header":{"parameterUnit":"m.s-1","parameterCategory":1,"la1":30.2991,"la2":30.254,"lo1":-89.0895,"lo2":-89.0444,"dy":0.0017,"dx":0.0017,"nx":28,"ny":28,"refTime":"2025-08-15T09:00:00:Z","depth":0,"parameterNumber":2,"parameterNumberName":"U-component_of_WINDS"},"data":[0,0,0,0,0,0,0,0,0,0,0,0,0,0,0,0,0,0,0,0,0,0,0,0,0,0,0,0,0,0,0,0,0,0,0,0,0,0,0,0,0,0,0,0,0,0,0,0,0,0,0,0,0,0,0,0,0,0,2.1468,2.1468,0,2.151,2.151,2.1511,2.1402,2.1398,2.1395,2.1392,2.144,2.1444,2.1448,0,0,0,0,0,0,0,0,0,0,0,0,0,2.1297,2.1301,2.1468,2.1468,2.1469,2.151,2.151,2.1511,2.1402,2.1398,2.1394,2.139,2.1438,2.1444,2.1449,0,0,0,0,0,0,0,0,0,0,0,0,0,2.1359,2.1302,2.1468,2.1419,2.1416,2.151,2.151,2.1511,2.1403,2.1398,2.1393,2.1388,2.1437,2.1443,2.145,2.1594,0,0,2.147,2.1473,0,0,0,0,0,0,0,0,2.1355,2.1365,2.1426,2.1423,2.1419,2.1445,2.1467,2.1539,2.1405,2.1408,2.1392,2.1386,2.1446,2.1452,2.1471,2.1596,2.1598,2.1471,2.1475,2.1478,2.148,0,0,0,0,0,0,0,2.1351,2.1363,2.1484,2.1427,2.1423,2.1397,2.14,2.1481,2.1456,2.1407,2.14,2.1406,2.1443,2.1465,2.1471,2.1599,2.1471,2.1476,2.1481,2.1483,2.1843,2.1849,0,0,0,0,0,0,2.1352,2.136,2.1483,2.1486,2.1373,2.1404,2.1407,2.1442,2.1454,2.1451,2.141,2.1401,2.1456,2.1464,2.1473,2.1642,2.1478,2.1484,2.1488,2.1838,2.1845,2.1851,0,0,0,0,0,0,2.1349,2.1364,2.1481,2.1421,2.1433,2.1412,2.1452,2.1446,2.1467,2.1456,2.1452,2.1437,2.1452,2.1463,2.1564,2.1642,2.1487,2.1493,2.1831,2.184,2.1848,2.1982,0,0,0,0,0,0,2.1345,2.1364,2.1418,2.1422,2.1437,2.1572,2.1457,2.145,2.1478,2.1466,2.148,2.1477,2.1449,2.1554,2.1571,2.1649,2.1498,2.1824,2.1835,2.1845,2.1971,2.1994,2.2014,0,0,0,0,0,2.1339,2.1455,2.1421,2.1437,2.1504,2.1576,2.1585,2.1548,2.1485,2.154,2.1532,2.1477,2.163,2.1566,2.1583,2.1664,2.1819,2.1832,2.1844,2.1961,2.199,2.2014,0,0,0,0,0,0,2.1463,2.1455,2.1417,2.1538,2.1559,2.1558,2.1626,2.158,2.162,2.1607,2.1561,2.1565,2.1675,2.1679,2.1607,2.1804,2.1714,2.1731,2.1797,2.1824,2.1846,2.1843,2.1504,0,0,0,0,0,2.1504,2.1562,2.1552,2.166,2.1672,2.1647,2.1678,2.1647,2.1667,2.1676,2.1676,2.1699,2.1751,2.1788,2.1836,2.197,2.1972,2.2034,2.2056,2.2074,2.209,2.2161,2.2188,2.1892,2.1891,2.1891,0,0,2.159,2.1593,2.1633,2.1685,2.1697,2.176,2.1656,2.1726,2.1772,2.1687,2.1782,2.1783,2.1805,2.1923,2.1975,2.193,2.2171,2.209,2.2104,2.211,2.2176,2.2205,2.223,2.19,2.1898,2.1897,0,0,2.1779,2.1787,2.1877,2.1891,2.191,2.1892,2.1914,2.1919,2.1916,2.201,2.1947,2.2002,2.2094,2.2112,2.2134,2.2327,2.2278,2.2344,2.2459,2.2529,2.2552,2.2573,2.2643,2.2668,2.236,2.236,2.236,0,2.1885,2.1975,2.193,2.2005,2.203,2.1953,2.2044,2.206,2.2095,2.2115,2.2063,2.2176,2.2186,2.2307,2.2354,2.2374,2.2398,2.2344,2.2552,2.2572,2.2591,2.2657,2.2684,2.2368,2.2367,2.2366,2.2365,0,2.2104,2.2167,2.2238,2.2271,2.2304,2.2387,2.2356,2.2395,2.2361,2.2349,2.2446,2.2454,2.2502,2.2528,2.2497,2.2645,2.2617,2.2559,2.2469,2.2628,2.2689,2.2714,2.2379,2.2376,2.2374,2.2372,0,0,2.2375,2.238,2.2407,2.2421,2.2435,2.2484,2.2563,2.2608,2.2643,2.2669,2.2735,2.2814,2.276,2.2785,2.2754,2.2815,2.2969,2.275,2.275,2.2792,2.3134,2.3178,2.3208,2.2935,2.294,2.2944,2.3132,0,2.2562,2.2697,2.2658,2.2794,2.2852,2.2778,2.2847,2.2864,2.2855,2.2903,2.2893,2.295,2.2875,2.2889,2.2946,2.2938,2.3037,2.2924,2.2998,2.3001,2.2997,2.324,2.3287,2.3465,2.3156,2.316,2.3163,0,2.2799,2.2832,2.2974,2.2976,2.3,2.3062,2.31,2.3147,2.3165,2.3153,2.318,2.3136,2.3215,2.3122,2.3231,2.3154,2.3182,2.3183,2.3189,2.3196,2.3093,2.3255,2.352,2.3548,2.32,2.3197,2.3194,0,2.2984,2.3064,2.3158,2.3172,2.3178,2.3224,2.3229,2.3241,2.327,2.3303,2.3322,2.3365,2.3389,2.3424,2.3393,2.3328,2.3507,2.3411,2.3501,2.3502,2.3544,2.3542,2.3819,2.3559,2.3559,2.3558,2.3558,0,2.3199,2.3288,2.3241,2.33,2.3398,2.3352,2.3451,2.3447,2.3458,2.3515,2.3454,2.351,2.3465,2.3517,2.3493,2.3587,2.3598,2.3592,2.3585,2.3599,2.36,2.3618,2.3605,2.3565,2.3564,2.3562,2.3561,0,2.3423,2.3395,2.3493,2.349,2.3491,2.3564,2.3561,2.3615,2.36,2.3673,2.3687,2.3665,2.3722,2.3694,2.3754,2.3738,2.386,2.3835,2.3854,2.3848,2.394,2.3932,2.4239,2.4278,2.3992,2.3995,2.3997,0,2.3563,2.363,2.3632,2.3665,2.3674,2.3728,2.3757,2.3714,2.3747,2.377,2.3822,2.3874,2.3913,2.4008,2.3997,2.4043,2.402,2.4125,2.4027,2.4038,2.4024,2.4021,2.4027,2.4145,2.4149,2.4151,2.4154,0,2.3814,2.3796,2.3839,2.3878,2.3914,2.3943,2.3966,2.3997,2.3955,2.3995,2.4051,2.4082,2.4142,2.4194,2.4233,2.4239,2.4191,2.4184,2.4207,2.4223,2.4231,2.4229,2.3909,2.4178,2.4175,2.4174,2.4172,2.4171,2.4001,2.4057,2.4067,2.4117,2.413,2.4153,2.4204,2.4193,2.4239,2.4284,2.4256,2.4323,2.4337,2.4385,2.4397,2.4449,2.4408,2.4442,2.4451,2.446,2.4473,2.4221,2.4456,2.4455,2.4455,2.4454,2.4453,0,2.425,2.4252,2.4299,2.4333,2.4372,2.4319,2.4342,2.438,2.4439,2.4455,2.4494,2.4559,2.4609,2.4601,2.4647,2.469,2.4669,2.4704,2.4702,2.4704,2.4506,2.4482,2.472,2.472,2.472,2.472,2.472,2.472,2.4385,2.4476,2.4459,2.4556,2.4558,2.4622,2.464,2.4661,2.4674,2.4748,2.4789,2.4782,2.479,2.4835,2.4878,2.4875,2.4895,2.4939,2.4928,2.4744,2.4718,2.4693,2.467,2.4943,2.4944,2.512,2.5122,2.5123]},{"header":{"parameterUnit":"m.s-1","parameterCategory":1,"la1":30.2991,"la2":30.254,"lo1":-89.0895,"lo2":-89.0444,"dy":0.0017,"dx":0.0017,"nx":28,"ny":28,"refTime":"2025-08-15T09:00:00:Z","depth":0,"parameterNumber":3,"parameterNumberName":"V-component_of_WINDS"},"data":[0,0,0,0,0,0,0,0,0,0,0,0,0,0,0,0,0,0,0,0,0,0,0,0,0,0,0,0,0,0,0,0,0,0,0,0,0,0,0,0,0,0,0,0,0,0,0,0,0,0,0,0,0,0,0,0,0,0,-0.7213,-0.7212,0,-0.7201,-0.7201,-0.7201,-0.7206,-0.7206,-0.7206,-0.7207,-0.7194,-0.7193,-0.7193,0,0,0,0,0,0,0,0,0,0,0,0,0,-0.7238,-0.7238,-0.7213,-0.7212,-0.7212,-0.7201,-0.7201,-0.7201,-0.7206,-0.7206,-0.7207,-0.7207,-0.7194,-0.7194,-0.7193,0,0,0,0,0,0,0,0,0,0,0,0,0,-0.7227,-0.7238,-0.7213,-0.7213,-0.7213,-0.7201,-0.7201,-0.7201,-0.7206,-0.7206,-0.7207,-0.7207,-0.7194,-0.7194,-0.7193,-0.7179,0,0,-0.719,-0.719,0,0,0,0,0,0,0,0,-0.7228,-0.7226,-0.7213,-0.7213,-0.7213,-0.7205,-0.7206,-0.7193,-0.7206,-0.7209,-0.7207,-0.7207,-0.7197,-0.7196,-0.7193,-0.7178,-0.7178,-0.719,-0.7189,-0.7189,-0.7189,0,0,0,0,0,0,0,-0.7228,-0.7227,-0.7208,-0.7213,-0.7213,-0.7214,-0.7213,-0.7203,-0.7201,-0.7208,-0.7209,-0.7207,-0.7197,-0.7194,-0.7193,-0.7177,-0.719,-0.7189,-0.7189,-0.7188,-0.7152,-0.7151,0,0,0,0,0,0,-0.7229,-0.7227,-0.7208,-0.7208,-0.7222,-0.7214,-0.7212,-0.7207,-0.7201,-0.72,-0.7207,-0.7208,-0.7195,-0.7194,-0.7193,-0.7176,-0.7189,-0.7188,-0.7188,-0.7152,-0.7151,-0.7151,0,0,0,0,0,0,-0.723,-0.7228,-0.7209,-0.7218,-0.7215,-0.7213,-0.7207,-0.7207,-0.7204,-0.72,-0.7199,-0.7204,-0.7196,-0.7194,-0.7183,-0.7176,-0.7188,-0.7187,-0.7152,-0.7152,-0.7151,-0.7144,0,0,0,0,0,0,-0.723,-0.7228,-0.7222,-0.7217,-0.7215,-0.7199,-0.7207,-0.7207,-0.7202,-0.7203,-0.7197,-0.7196,-0.7196,-0.7184,-0.7182,-0.7175,-0.7186,-0.7153,-0.7152,-0.7151,-0.7144,-0.7143,-0.7141,0,0,0,0,0,-0.7231,-0.722,-0.7222,-0.722,-0.7208,-0.7199,-0.7197,-0.7197,-0.7202,-0.7196,-0.7194,-0.7197,-0.7177,-0.7183,-0.718,-0.7173,-0.7153,-0.7152,-0.7151,-0.7145,-0.7143,-0.7141,0,0,0,0,0,0,-0.7223,-0.7219,-0.7221,-0.7208,-0.7204,-0.7199,-0.7192,-0.7195,-0.7188,-0.7189,-0.7189,-0.7188,-0.7176,-0.7174,-0.718,-0.716,-0.7166,-0.7165,-0.7162,-0.716,-0.7159,-0.7159,-0.7185,0,0,0,0,0,-0.722,-0.7213,-0.721,-0.7199,-0.7196,-0.7195,-0.7191,-0.7191,-0.7187,-0.7184,-0.7181,-0.7176,-0.7169,-0.7165,-0.7158,-0.7144,-0.7143,-0.7138,-0.7137,-0.7136,-0.7134,-0.7128,-0.7125,-0.7148,-0.7148,-0.7148,0,0,-0.7213,-0.721,-0.7206,-0.7197,-0.7194,-0.7186,-0.7193,-0.7185,-0.7179,-0.7183,-0.7172,-0.717,-0.7165,-0.7152,-0.7147,-0.715,-0.7128,-0.7134,-0.7133,-0.7133,-0.7126,-0.7124,-0.7122,-0.7147,-0.7147,-0.7147,0,0,-0.7197,-0.7194,-0.7185,-0.7182,-0.7177,-0.7176,-0.7174,-0.7169,-0.7168,-0.7158,-0.7161,-0.7154,-0.7142,-0.7138,-0.7135,-0.7119,-0.7121,-0.7116,-0.7108,-0.7102,-0.71,-0.7098,-0.7093,-0.7091,-0.7115,-0.7115,-0.7115,0,-0.7189,-0.7178,-0.7179,-0.7171,-0.7168,-0.7172,-0.7162,-0.7159,-0.7152,-0.7149,-0.7153,-0.7138,-0.7135,-0.7122,-0.7118,-0.7115,-0.7113,-0.7117,-0.71,-0.7099,-0.7097,-0.7092,-0.709,-0.7115,-0.7115,-0.7115,-0.7115,0,-0.7169,-0.7162,-0.7155,-0.7149,-0.7144,-0.7135,-0.7135,-0.7131,-0.7132,-0.7131,-0.7121,-0.7117,-0.711,-0.7107,-0.7108,-0.7095,-0.7097,-0.71,-0.7106,-0.7095,-0.709,-0.7088,-0.7114,-0.7114,-0.7114,-0.7114,0,0,-0.7146,-0.7142,-0.714,-0.7137,-0.7133,-0.7127,-0.7119,-0.7113,-0.7109,-0.7104,-0.7098,-0.7088,-0.7091,-0.7087,-0.7088,-0.7082,-0.7071,-0.7087,-0.7087,-0.7084,-0.7057,-0.7054,-0.7052,-0.7072,-0.7072,-0.7072,-0.7057,0,-0.713,-0.7116,-0.7117,-0.7104,-0.7098,-0.7102,-0.7095,-0.7091,-0.7091,-0.7085,-0.7084,-0.7077,-0.7082,-0.708,-0.7075,-0.7073,-0.7065,-0.7074,-0.7066,-0.7066,-0.7067,-0.7049,-0.7046,-0.7033,-0.7055,-0.7055,-0.7055,0,-0.7109,-0.7104,-0.7091,-0.7088,-0.7086,-0.7079,-0.7074,-0.7069,-0.7065,-0.7065,-0.7061,-0.7063,-0.7055,-0.7062,-0.7051,-0.7058,-0.7054,-0.7053,-0.7053,-0.7052,-0.7059,-0.7048,-0.7028,-0.7026,-0.7052,-0.7052,-0.7052,0,-0.7094,-0.7085,-0.7075,-0.7073,-0.707,-0.7066,-0.7064,-0.7061,-0.7058,-0.7053,-0.7051,-0.7046,-0.7043,-0.7038,-0.7039,-0.7044,-0.7028,-0.7035,-0.7028,-0.7028,-0.7024,-0.7024,-0.7004,-0.7022,-0.7022,-0.7022,-0.7022,0,-0.7076,-0.7067,-0.7069,-0.7063,-0.7054,-0.7056,-0.7047,-0.7046,-0.7043,-0.7038,-0.7041,-0.7036,-0.7037,-0.7031,-0.7032,-0.7023,-0.7022,-0.7021,-0.7021,-0.7021,-0.7021,-0.7019,-0.702,-0.7022,-0.7022,-0.7022,-0.7022,0,-0.7057,-0.7058,-0.7049,-0.7047,-0.7047,-0.704,-0.7038,-0.7033,-0.7033,-0.7026,-0.7024,-0.7024,-0.7018,-0.7019,-0.7011,-0.7012,-0.7001,-0.7002,-0.7003,-0.7003,-0.6996,-0.6997,-0.6973,-0.697,-0.6991,-0.699,-0.699,0,-0.7045,-0.7039,-0.7037,-0.7034,-0.7033,-0.7027,-0.7024,-0.7026,-0.7022,-0.7019,-0.7014,-0.7009,-0.7004,-0.6994,-0.6994,-0.6988,-0.699,-0.6982,-0.6989,-0.6989,-0.699,-0.699,-0.699,-0.698,-0.698,-0.698,-0.698,0,-0.7024,-0.7026,-0.7021,-0.7017,-0.7013,-0.701,-0.7007,-0.7004,-0.7006,-0.7002,-0.6996,-0.6993,-0.6986,-0.6981,-0.6976,-0.6975,-0.6978,-0.6978,-0.6976,-0.6975,-0.6976,-0.6976,-0.6999,-0.6978,-0.6978,-0.6978,-0.6978,-0.6978,-0.7009,-0.7004,-0.7002,-0.6998,-0.6996,-0.6993,-0.6989,-0.6989,-0.6984,-0.6979,-0.6981,-0.6974,-0.6972,-0.6966,-0.6964,-0.6959,-0.6962,-0.6959,-0.6959,-0.6958,-0.6957,-0.6977,-0.6958,-0.6959,-0.6959,-0.6959,-0.6959,0,-0.6989,-0.6988,-0.6984,-0.698,-0.6976,-0.698,-0.6977,-0.6974,-0.6968,-0.6966,-0.6962,-0.6956,-0.6951,-0.6951,-0.6946,-0.6942,-0.6943,-0.6941,-0.6941,-0.6941,-0.6955,-0.6957,-0.694,-0.694,-0.694,-0.694,-0.694,-0.694,-0.6977,-0.6969,-0.6971,-0.6962,-0.6961,-0.6956,-0.6954,-0.6952,-0.695,-0.6943,-0.694,-0.6939,-0.6938,-0.6933,-0.6929,-0.6929,-0.6927,-0.6924,-0.6925,-0.6938,-0.694,-0.6942,-0.6944,-0.6924,-0.6924,-0.6911,-0.6911,-0.6911]}]]